Starlink 11429

operational
NORAD ID: 62061 Int'l Des: 2024-217 Owner: SPXS Country: US Constellation: starlink
LEOCIRCULAR

关于 Starlink 11429

正在加载描述...

实时位置

正在加载3D地球...

即将过境

高度历史

Altitude vs Time

uPlot chart will show altitude changes over time

两行轨道根数

1 62061U 24217E 25305.59429395 .00111594 00000-0 91236-3 0 9997
2 62061 53.1569 342.7984 0001217 78.4492 281.6663 15.69743290 55051
Epoch: Nov 1, 2025 • Age: 24 hours

当前状态

高度 359.1 km
速度 7.70 km/s
星下点 16.29°N, 104.59°W
发射日期 Nov 24, 2024
运行时间 0.9 years
类型 internet

技术详情

分类 Payload
质量 960.00 kg
干质量 910.00 kg
总质量 960.00 kg
长度 0.30 m
直径 4.10 m
跨度 29.00 m
形状 Box + pan
制造商 SPXS
平台类型 Starlink V2MD
阶段状态 In Orbit
所有者/国家 SPXS/US

大型星座

Loading constellations...